Location: Sweet Grass
(48.9965°N, 111.9649°W)
Time: 23:03:48
(UTC+00:00)

Envisat - Visible Passes

Search period start: 04 December 2022 00:00
Search period end: 14 December 2022 00:00
Orbit: 763 x 765 km, 98.2° (Epoch: 04 December)

Date Brightness Start Highest point End Pass type
(mag) Time Alt. Az. Time Alt. Az. Time Alt. Az.
04 Dec 5.7 00:01:44 10° SW 00:05:21 19° W 00:09:00 10° NW visible
04 Dec 4.4 12:04:24 10° N 12:06:39 27° N 12:06:39 27° N visible
04 Dec 4.7 13:45:11 10° NNW 13:46:50 13° NW 13:46:50 13° NW visible
05 Dec 5.1 11:27:28 10° NNE 11:29:04 20° NNE 11:29:04 20° NNE visible
05 Dec 4.4 13:07:04 10° N 13:09:14 20° NNW 13:09:14 20° NNW visible
06 Dec 6.1 00:29:00 10° WSW 00:30:46 12° W 00:32:30 10° WNW visible
06 Dec 5.7 10:50:57 10° NE 10:51:29 12° NE 10:51:29 12° NE visible
06 Dec 4.4 12:29:34 10° N 12:31:40 24° N 12:31:40 24° N visible
07 Dec 4.8 11:52:25 10° NNE 11:54:05 21° NNE 11:54:05 21° NNE visible
07 Dec 4.7 13:32:45 10° NNW 13:34:16 15° NW 13:34:16 15° NW visible
08 Dec 5.4 11:15:36 10° NNE 11:16:32 15° NNE 11:16:32 15° NNE visible
08 Dec 4.6 12:54:54 10° N 12:56:42 19° NNW 12:56:42 19° NNW visible
09 Dec 5.9 00:15:46 10° WSW 00:18:37 15° W 00:21:28 10° NW visible
09 Dec 4.7 12:17:32 10° N 12:19:08 20° N 12:19:08 20° N visible
09 Dec 5.0 13:59:16 10° NW 13:59:19 10° NW 13:59:19 10° NW visible
10 Dec 5.2 11:40:29 10° NNE 11:41:35 17° NNE 11:41:35 17° NNE visible
10 Dec 4.8 13:20:26 10° NNW 13:21:46 15° NNW 13:21:46 15° NNW visible
11 Dec 5.7 11:03:47 10° NNE 11:04:02 11° NNE 11:04:02 11° NNE visible
11 Dec 4.8 12:42:47 10° N 12:44:13 18° N 12:44:13 18° N visible
12 Dec 5.7 00:02:59 10° SW 00:06:30 19° W 00:10:03 10° NW visible
12 Dec 5.0 12:05:31 10° N 12:06:41 17° N 12:06:41 17° N visible
12 Dec 5.0 13:46:24 10° NNW 13:46:52 11° NNW 13:46:52 11° NNW visible
13 Dec 5.5 11:28:34 10° NNE 11:29:09 13° NNE 11:29:09 13° NNE visible
13 Dec 4.8 13:08:13 10° N 13:09:20 15° NNW 13:09:20 15° NNW visible
